User: anonymous   Login
Location: Aigremont
(47.7188°N, 3.8925°E)
Time: 16:30:51
(UTC+00:00)
Language:

CZ-4B R/B - Orbit

View from above orbital plane
View from above orbital plane
View from above satellite
View from above satellite

Ground track
Ground track

The orbit data is extracted from the following two-line orbital elements,

1 33410U 08053C   20151.92122899  .00000817  00000-0  63118-4 0  9997
2 33410  97.8643 138.0342 0118304 174.6032 185.6497 14.99174319632369
Epoch (UTC): 30 May 2020 22:06:34
Eccentricity: 0.0118304
inclination: 97.8643°
perigee height: 487 km
apogee height: 651 km
right ascension of ascending node: 138.0342°
argument of perigee: 174.6032°
revolutions per day: 14.99174319
mean anomaly at epoch: 185.6497°
orbit number at epoch: 63236

The dashed part of the orbit path shows where the satellite is in the earth's shadow,  

DLR